Погода в Малой Сердобе

Россия / Пензенская область     52°27′54″N   44°57′16″E
темп.,
°C
ветер,
м/с
пор.,
м/с
влажн.,
%
обл.,
%
осадки,
мм/ч
давл.,
гПа
погр.,
м
8 марта, пн
пн800:00−4юз101894100 0.9 1001939
03:00−3зюз91694100 1.9 1001994
06:00−5зюз6137995 0.4 1002400
09:00−5зюз6138664 0.4 1003541
12:00−2зюз7108552 0.0 10031050
15:00−2зюз7118577 0.2 10021139
18:00−6з6148561 0.1 1004419
21:00−10з469130 0.1 100897
9 марта, вт
вт900:00−14з33890 0.0 100921
03:00−15з22910 0.0 101020
06:00−17зсз12940 0.0 101120
09:00−13сз11920 0.0 101170
12:00−10сз339043 0.0 1011267
15:00−9сз459271 0.0 1012412
18:00−11сз4895100 0.1 1012254
21:00−15сз499589 0.1 1015177
10 марта, ср
ср1000:00−17сз479768 0.0 1016134
03:00−19сз479965 0.1 1017134
06:00−21сз499970 0.0 1019189
09:00−19сз599683 0.1 1020312
12:00−17сз6892100 0.0 1022528
15:00−17сз6990100 0.1 1023657
18:00−19сз51095100 0.1 1024320
21:00−23ссз499795 0.1 1027189
11 марта, чт
чт1100:00−26ссз479812 0.0 102895
03:00−27ссз45986 0.0 103078
06:00−27ссз44990 0.0 103165
09:00−23ссз47960 0.0 1032213
12:00−19сз469311 0.0 1032267
15:00−16сз47915 0.0 1032338
18:00−20зсз45980 0.0 103280
21:00−21сз45980 0.0 103373
12 марта, пт
пт1200:00−21ссз34970 0.0 103462
03:00−21сз33960 0.0 103422
06:00−22ссз33950 0.0 103522
09:00−18с23910 0.0 1036103
12:00−13сз21800 0.0 1036212
15:00−12зсз22820 0.0 1035200
18:00−17зюз11880 0.0 103520
21:00−18ююз22880 0.0 103720